Uvalde, Texas, United States (78801)
Lat: 29.21N, Lon: 99.79W
Wx Zone: TXZ203
Local Info
Past Weather Observations for Today

NOTE: This archive is for the closest National Weather Service station to Uvalde. Information may differ from the station used for current weather conditions.

Time Weather Temperature Dewpoint Humidity Pressure Winds Precip Visibility
12:55
Overcast
70°F / 21°C 66°F / 19°C 88% 30.09 in
(1019 mb)
SSE 8.1 mph
(SSE 13 kph)
- 10SM
12:35
Overcast
68°F / 20°C 66°F / 19°C 94% 30.09 in
(1019 mb)
SE 8.1 mph
(SE 13 kph)
- 10SM
12:15
Overcast
68°F / 20°C 66°F / 19°C 94% 30.09 in
(1019 mb)
SE 6.9 mph
(SE 11 kph)
- 10SM
11:55
Overcast
Fog And Mist
68°F / 20°C 68°F / 20°C 100% 30.09 in
(1019 mb)
SE 6.9 mph
(SE 11 kph)
- 5SM
11:35
Overcast
Fog And Mist
68°F / 20°C 68°F / 20°C 100% 30.12 in
(1020 mb)
SE 11.5 mph
(SE 19 kph)
- 4SM
11:15
Overcast
Rain
68°F / 20°C 68°F / 20°C 100% 30.12 in
(1020 mb)
SE 8.1 mph
(SE 13 kph)
- 1 3/4SM
10:55
Overcast
Drizzle
68°F / 20°C 68°F / 20°C 100% 30.12 in
(1020 mb)
SE 9.2 mph
(SE 15 kph)
0.01 in
(0.25 mm)
1 1/4SM
10:35
Overcast
Rain
68°F / 20°C 68°F / 20°C 100% 30.12 in
(1020 mb)
SE 9.2 mph
(SE 15 kph)
- 1 1/4SM
10:15
Overcast
Drizzle
68°F / 20°C 68°F / 20°C 100% 30.12 in
(1020 mb)
SE 9.2 mph
(SE 15 kph)
- 1 3/4SM
09:55
Overcast
Drizzle
68°F / 20°C 68°F / 20°C 100% 30.12 in
(1020 mb)
SE 8.1 mph
(SE 13 kph)
0.01 in
(0.25 mm)
1 3/4SM
09:35
Overcast
Drizzle
66°F / 19°C 66°F / 19°C 100% 30.12 in
(1020 mb)
ESE 6.9 mph
(ESE 11 kph)
0.01 in
(0.25 mm)
1 1/4SM
09:15
Overcast
Rain
66°F / 19°C 64°F / 18°C 94% 30.12 in
(1020 mb)
E 8.1 mph
(E 13 kph)
0.01 in
(0.25 mm)
4SM
08:55
Overcast
Drizzle
66°F / 19°C 64°F / 18°C 94% 30.12 in
(1020 mb)
E 6.9 mph
(E 11 kph)
0.01 in
(0.25 mm)
4SM
08:35
Overcast
Drizzle
68°F / 20°C 66°F / 19°C 94% 30.12 in
(1020 mb)
ESE 6.9 mph
(ESE 11 kph)
- 3SM
08:15
Overcast
68°F / 20°C 66°F / 19°C 94% 30.12 in
(1020 mb)
E 10.4 mph
(E 17 kph)
- 7SM
07:55
Overcast
68°F / 20°C 66°F / 19°C 94% 30.12 in
(1020 mb)
E 8.1 mph
(E 13 kph)
- 7SM
07:35
Overcast
Drizzle
66°F / 19°C 64°F / 18°C 94% 30.09 in
(1019 mb)
E 9.2 mph
(E 15 kph)
- 7SM
07:15
Overcast
66°F / 19°C 64°F / 18°C 94% 30.09 in
(1019 mb)
E 8.1 mph
(E 13 kph)
- 10SM
06:55
Overcast
66°F / 19°C 64°F / 18°C 94% 30.09 in
(1019 mb)
E 8.1 mph
(E 13 kph)
- 10SM
06:35
Overcast
Fog And Mist
66°F / 19°C 64°F / 18°C 94% 30.09 in
(1019 mb)
E 9.2 mph
(E 15 kph)
- 5SM
06:15
Overcast
Drizzle
68°F / 20°C 64°F / 18°C 88% 30.09 in
(1019 mb)
E 9.2 mph
(E 15 kph)
- 7SM
05:55
Overcast
Drizzle
68°F / 20°C 64°F / 18°C 88% 30.09 in
(1019 mb)
E 8.1 mph
(E 13 kph)
- 10SM
05:35
Overcast
68°F / 20°C 64°F / 18°C 88% 30.09 in
(1019 mb)
E 8.1 mph
(E 13 kph)
- 10SM
05:15
Overcast
68°F / 20°C 64°F / 18°C 88% 30.09 in
(1019 mb)
E 5.8 mph
(E 9 kph)
- 10SM
04:55
Overcast
68°F / 20°C 64°F / 18°C 88% 30.09 in
(1019 mb)
E 6.9 mph
(E 11 kph)
- 10SM
04:35
Overcast
Light Rain
68°F / 20°C 63°F / 17°C 83% 30.06 in
(1018 mb)
E 8.1 mph
(E 13 kph)
- 10SM
04:15
Overcast
68°F / 20°C 63°F / 17°C 83% 30.06 in
(1018 mb)
E 9.2 mph
(E 15 kph)
- 10SM
03:55
Overcast
68°F / 20°C 63°F / 17°C 83% 30.06 in
(1018 mb)
ESE 12.7 mph
(ESE 20 kph)
- 10SM
03:35
Overcast
68°F / 20°C 63°F / 17°C 83% 30.06 in
(1018 mb)
ESE 12.7 mph
(ESE 20 kph)
- 10SM
03:15
Overcast
68°F / 20°C 61°F / 16°C 78% 30.06 in
(1018 mb)
ESE 10.4 mph
(ESE 17 kph)
- 10SM
02:55
Overcast
68°F / 20°C 61°F / 16°C 78% 30.06 in
(1018 mb)
SE 9.2 mph
(SE 15 kph)
- 10SM
02:35
Overcast
68°F / 20°C 61°F / 16°C 78% 30.06 in
(1018 mb)
E 8.1 mph
(E 13 kph)
- 10SM
02:15
Overcast
68°F / 20°C 61°F / 16°C 78% 30.09 in
(1019 mb)
ESE 8.1 mph
(ESE 13 kph)
- 10SM
01:55
Overcast
68°F / 20°C 59°F / 15°C 73% 30.09 in
(1019 mb)
SE 9.2 mph
(SE 15 kph)
- 10SM
01:35
Overcast
68°F / 20°C 59°F / 15°C 73% 30.09 in
(1019 mb)
SE 6.9 mph
(SE 11 kph)
- 10SM
01:15
Overcast
68°F / 20°C 59°F / 15°C 73% 30.09 in
(1019 mb)
SE 9.2 mph
(SE 15 kph)
- 10SM
00:55
Overcast
68°F / 20°C 59°F / 15°C 73% 30.09 in
(1019 mb)
SE 12.7 mph
(SE 20 kph)
- 10SM
00:35
Overcast
68°F / 20°C 59°F / 15°C 73% 30.06 in
(1018 mb)
SE 13.8 mph
(SE 22 kph)
- 10SM
00:15
Overcast
70°F / 21°C 59°F / 15°C 69% 30.09 in
(1019 mb)
SE 10.4 mph
(SE 17 kph)
- 10SM
Time Weather Temperature Dewpoint Humidity Pressure Winds Precip Visibility


Weather for websites

WeatherForYou.com, LLC is not responsible for any damages or problems caused by this service. Current weather conditions are obtained from the closest station including government and personal stations which may have varying degrees of accuracy. Weather forecasts are derived from the NOAA NDFD. Like all things, this site belongs to Jesus Christ... He just trusts me to maintain it. If you have any questions or comments email webmaster@weatherforyou.com

Copyright © 2014, WeatherForYou.com LLC. All rights reserved.